User: anonymous   Login
Location: NJAA Observatory
(40.6819°N, 74.8979°W)
Time: 13:03:26
(UTC-05:00)
Language:

Iridium 84 - Orbit

View from above orbital plane
View from above orbital plane
View from above satellite
View from above satellite

Ground track
Ground track

The orbit data is extracted from the following two-line orbital elements,

1 25530U 98066D   18050.54396730 -.00000066  00000-0 -30695-4 0  9996
2 25530  86.3926 246.5130 0001966  84.6952 275.4468 14.34217201 12451
Epoch (UTC): 19 February 2018 13:03:18
Eccentricity: 0.0001966
inclination: 86.3926°
perigee height: 776 km
apogee height: 779 km
right ascension of ascending node: 246.5130°
argument of perigee: 84.6952°
revolutions per day: 14.34217201
mean anomaly at epoch: 275.4468°
orbit number at epoch: 1245

The dashed part of the orbit path shows where the satellite is in the earth's shadow,  

DLR